Weather History for Eufaula, AL

Change the Weather History Date:

Friday, November 30, 2012

  Actual Average (KLSF) Record (KLSF)
Temperature  
Mean Temperature 67 °F -  
Max Temperature 86 °F 63 °F 78 °F (2006)
Min Temperature 48 °F 36 °F 26 °F (2013)
Cooling Degree Days 2    
Growing Degree Days 17 (Base 50)    
Moisture  
Dew Point 48 °F    
Average Humidity 64    
Maximum Humidity 83    
Minimum Humidity 28    
Precipitation  
Precipitation 0.00 in - - ()
Sea Level Pressure  
Sea Level Pressure 30.28 in    
Wind  
Wind Speed 1 mph (ESE)    
Max Wind Speed 6 mph    
Max Gust Speed -    
Visibility 9 miles    
Events Rain    
Averages and records for this station are not official NWS values.
T = Trace of Precipitation, MM = Missing Value Source: NWS Daily Summary

Daily Weather History Graph

Daily Weather History Graph

Search for Another Location

Airport:

Trip Planner

Search our weather history database for the weather conditions in past years. The results will help you decide how hot, cold, wet, or windy it might be!

Date:

Astronomy

Nov. 30, 2012 Rise Set
Actual Time 6:22 AM CST 4:36 PM CST
Civil Twilight 5:56 AM CST 5:02 PM CST
Nautical Twilight 5:25 AM CST 5:32 PM CST
Astronomical Twilight 4:56 AM CST 6:02 PM CST
Moon 6:29 PM CST (11/30) 7:54 AM CST (11/30)
Length of Visible Light 11h 06m
Length of Day
10h 13m
Waning Gibbous, 96% of the Moon is Illuminated
Nov 30
Waning Gibbous
Dec 6
Last Quarter
Dec 13
New
Dec 19
First Quarter
Dec 28
Full

Hourly Weather History & Observations

Time (CST) Temp. Dew Point Humidity Pressure Visibility Wind Dir Wind Speed Gust Speed Precip Events Conditions
12:58 AM 50.0 °F 43.0 °F 77% 30.31 in 8.0 mi Calm Calm - N/A   Overcast
1:58 AM 48.0 °F 42.1 °F 80% 30.31 in 5.0 mi Calm Calm - 0.00 in Rain Light Rain
2:58 AM 48.9 °F 42.1 °F 77% 30.31 in 4.0 mi Calm Calm - 0.00 in   Haze
3:58 AM 51.1 °F 46.0 °F 83% 30.32 in 5.0 mi Calm Calm - 0.00 in   Haze
4:58 AM 54.0 °F 46.9 °F 77% 30.32 in 10.0 mi Calm Calm - N/A   Overcast
5:58 AM 54.0 °F 46.9 °F 77% 30.32 in 10.0 mi East 4.6 mph - N/A   Overcast
6:58 AM 55.0 °F 48.0 °F 77% 30.33 in 10.0 mi Calm Calm - N/A   Overcast
7:58 AM 70.0 °F 48.0 °F 46% 30.33 in 10.0 mi ESE 3.5 mph - N/A   Partly Cloudy
8:58 AM 66.9 °F 48.9 °F 52% 30.33 in 10.0 mi Calm Calm - N/A   Clear
9:58 AM 70.0 °F 50.0 °F 49% 30.33 in 10.0 mi Calm Calm - N/A   Overcast
10:58 AM 77.0 °F 51.1 °F 40% 30.30 in 10.0 mi Calm Calm - N/A   Mostly Cloudy
11:58 AM 78.1 °F 51.1 °F 39% 30.27 in 10.0 mi Calm Calm - N/A   Mostly Cloudy
12:58 PM 80.1 °F 50.0 °F 35% 30.25 in 10.0 mi Variable 3.5 mph - N/A   Overcast
1:58 PM 86.0 °F 48.9 °F 28% 30.23 in 10.0 mi SE 4.6 mph - N/A   Overcast
2:58 PM 77.0 °F 48.9 °F 37% 30.23 in 10.0 mi East 5.8 mph - N/A   Overcast
3:58 PM 73.9 °F 50.0 °F 43% 30.24 in 10.0 mi Calm Calm - N/A   Mostly Cloudy
4:58 PM 64.0 °F 53.1 °F 67% 30.24 in 10.0 mi Calm Calm - N/A   Overcast
5:58 PM 62.1 °F 52.0 °F 70% 30.25 in 10.0 mi Calm Calm - N/A   Mostly Cloudy
6:58 PM 59.0 °F 52.0 °F 78% 30.26 in 10.0 mi Calm Calm - N/A   Overcast
7:58 PM 57.9 °F 51.1 °F 78% 30.26 in 10.0 mi Calm Calm - N/A   Mostly Cloudy
8:58 PM 55.0 °F 48.0 °F 77% 30.26 in 9.0 mi Calm Calm - N/A   Partly Cloudy
9:58 PM 53.1 °F 48.0 °F 83% 30.27 in 10.0 mi Calm Calm - N/A   Mostly Cloudy
10:58 PM 51.1 °F 45.0 °F 80% 30.27 in 8.0 mi Calm Calm - N/A   Clear
11:58 PM 51.1 °F 44.1 °F 77% 30.26 in 6.0 mi Calm Calm - N/A   Haze